Weather History for KBGE - January, 2013

Change the Weather History Date:

Thursday, January 10, 2013

  Actual Average (KMAI) Record (KMAI)
Temperature  
Mean Temperature 72 °F 50 °F  
Max Temperature 82 °F 61 °F 80 °F (2013)
Min Temperature 62 °F 39 °F 21 °F (2001)
Degree Days  
Heating Degree Days 0    
Month to date heating degree days  
Since 1 July heating degree days  
Cooling Degree Days 7    
Month to date cooling degree days  
Year to date cooling degree days  
Growing Degree Days 22 (Base 50)    
Moisture  
Dew Point 66 °F    
Average Humidity 86    
Maximum Humidity 100    
Minimum Humidity 54    
Precipitation  
Precipitation 0.00 in 0.12 in 0.45 in (2000)
Month to date precipitation 1.60  
Year to date precipitation 1.60  
Sea Level Pressure  
Sea Level Pressure 30.28 in    
Wind  
Wind Speed 6 mph (ESE)    
Max Wind Speed 10 mph    
Max Gust Speed -    
Visibility 8 miles    
Events Rain    
T = Trace of Precipitation, MM = Missing Value Source: NWS Daily Summary

Daily Weather History Graph

Daily Weather History Graph

Search for Another Location

Airport or City:

Trip Planner

Search our weather history database for the weather conditions in past years. The results will help you decide how hot, cold, wet, or windy it might be!

Date:

Astronomy

Jan. 10, 2013 Rise Set
Actual Time 7:37 AM EST 5:55 PM EST
Civil Twilight 7:11 AM EST 6:21 PM EST
Nautical Twilight 6:41 AM EST 6:51 PM EST
Astronomical Twilight 6:12 AM EST 7:20 PM EST
Moon 6:16 AM EST (1/10) 5:00 PM EST (1/10)
Length of Visible Light 11h 09m
Length of Day
10h 17m
Waning Crescent, 2% of the Moon is Illuminated
Jan 10
Waning Crescent
Jan 11
New
Jan 18
First Quarter
Jan 26
Full
Feb 3
Last Quarter

Hourly Weather History & Observations

Time (EST) Temp. Heat Index Dew Point Humidity Pressure Visibility Wind Dir Wind Speed Gust Speed Precip Events Conditions
12:15 AM 62.6 °F - 62.6 °F 100% 30.33 in 5.0 mi ENE 6.9 mph - N/A   Mostly Cloudy
12:35 AM 62.6 °F - 62.6 °F 100% 30.33 in 5.0 mi ENE 5.8 mph - N/A   Overcast
12:55 AM 64.4 °F - 62.6 °F 94% 30.33 in 5.0 mi East 5.8 mph - N/A   Overcast
1:15 AM 64.4 °F - 62.6 °F 94% 30.33 in 5.0 mi East 5.8 mph - N/A   Overcast
3:15 AM 69.8 °F - 68.0 °F 94% 30.33 in 5.0 mi ESE 5.8 mph - N/A   Overcast
3:35 AM 69.8 °F - 68.0 °F 94% 30.33 in 5.0 mi East 4.6 mph - N/A   Overcast
3:55 AM 69.8 °F - 68.0 °F 94% 30.32 in 5.0 mi East 5.8 mph - N/A   Overcast
4:15 AM 69.8 °F - 68.0 °F 94% 30.32 in 7.0 mi East 4.6 mph - N/A   Overcast
4:35 AM 69.8 °F - 68.0 °F 94% 30.31 in 7.0 mi East 5.8 mph - N/A   Overcast
4:55 AM 69.8 °F - 68.0 °F 94% 30.31 in 7.0 mi East 4.6 mph - N/A   Overcast
5:15 AM 68.0 °F - 68.0 °F 100% 30.31 in 5.0 mi East 3.5 mph - N/A   Mostly Cloudy
5:55 AM 68.0 °F - 64.4 °F 88% 30.30 in 5.0 mi East 4.6 mph - N/A   Mostly Cloudy
6:15 AM 68.0 °F - 66.2 °F 94% 30.29 in 5.0 mi East 5.8 mph - N/A   Mostly Cloudy
6:35 AM 68.0 °F - 64.4 °F 88% 30.29 in 5.0 mi East 6.9 mph - N/A   Mostly Cloudy
6:55 AM 68.0 °F - 66.2 °F 94% 30.30 in 7.0 mi East 4.6 mph - N/A   Scattered Clouds
7:15 AM 68.0 °F - 66.2 °F 94% 30.30 in 7.0 mi ESE 6.9 mph - N/A   Mostly Cloudy
7:35 AM 68.0 °F - 66.2 °F 94% 30.31 in 10.0 mi ESE 5.8 mph - N/A   Mostly Cloudy
7:55 AM 68.0 °F - 64.4 °F 88% 30.31 in 7.0 mi East 4.6 mph - N/A   Scattered Clouds
8:15 AM 68.0 °F - 66.2 °F 94% 30.31 in 7.0 mi East 4.6 mph - N/A   Mostly Cloudy
8:35 AM 68.0 °F - 66.2 °F 94% 30.31 in 7.0 mi ESE 5.8 mph - N/A   Overcast
8:55 AM 69.8 °F - 68.0 °F 94% 30.31 in 7.0 mi ESE 6.9 mph - N/A   Overcast
9:15 AM 69.8 °F - 68.0 °F 94% 30.32 in 10.0 mi ESE 4.6 mph - N/A   Overcast
9:35 AM 71.6 °F - 68.0 °F 88% 30.32 in 10.0 mi SE 8.1 mph - N/A   Overcast
10:15 AM 71.6 °F - 68.0 °F 88% 30.32 in 10.0 mi SE 9.2 mph - N/A   Mostly Cloudy
10:35 AM 71.6 °F - 68.0 °F 88% 30.31 in 10.0 mi SE 9.2 mph - N/A   Scattered Clouds
10:55 AM 71.6 °F - 66.2 °F 83% 30.31 in 10.0 mi ESE 8.1 mph - N/A   Scattered Clouds
11:15 AM 73.4 °F - 66.2 °F 78% 30.31 in 10.0 mi SE 8.1 mph - N/A   Mostly Cloudy
11:35 AM 73.4 °F - 66.2 °F 78% 30.32 in 10.0 mi SE 9.2 mph - N/A   Mostly Cloudy
12:15 PM 75.2 °F - 66.2 °F 73% 30.31 in 10.0 mi SE 6.9 mph - N/A   Mostly Cloudy
12:35 PM 77.0 °F - 68.0 °F 74% 30.30 in 10.0 mi SSE 10.4 mph - N/A   Mostly Cloudy
1:15 PM 77.0 °F - 66.2 °F 69% 30.28 in 10.0 mi SSE 6.9 mph - N/A   Mostly Cloudy
1:35 PM 80.6 °F 82.7 °F 66.2 °F 61% 30.27 in 10.0 mi SSE 10.4 mph - N/A   Scattered Clouds
1:55 PM 78.8 °F - 64.4 °F 61% 30.26 in 10.0 mi ESE 8.1 mph - N/A   Scattered Clouds
2:15 PM 80.6 °F 82.3 °F 64.4 °F 58% 30.25 in 10.0 mi ESE 9.2 mph - N/A   Mostly Cloudy
2:35 PM 80.6 °F 82.3 °F 64.4 °F 58% 30.24 in 10.0 mi SE 8.1 mph - N/A   Scattered Clouds
2:55 PM 82.4 °F 83.9 °F 64.4 °F 54% 30.23 in 10.0 mi East 9.2 mph - N/A   Scattered Clouds
3:15 PM 78.8 °F - 64.4 °F 61% 30.24 in 10.0 mi ESE 9.2 mph - N/A   Scattered Clouds
3:35 PM 78.8 °F - 64.4 °F 61% 30.24 in 10.0 mi SSE 5.8 mph - N/A   Mostly Cloudy
3:55 PM 77.0 °F - 68.0 °F 74% 30.25 in 10.0 mi SSE 5.8 mph - N/A Rain Rain
4:15 PM 77.0 °F - 69.8 °F 78% 30.25 in 10.0 mi South 3.5 mph - N/A   Mostly Cloudy
4:35 PM 77.0 °F - 68.0 °F 74% 30.25 in 10.0 mi South 5.8 mph - N/A   Scattered Clouds
4:55 PM 77.0 °F - 68.0 °F 74% 30.25 in 10.0 mi SSE 6.9 mph - N/A   Scattered Clouds
5:15 PM 73.4 °F - 64.4 °F 73% 30.25 in 10.0 mi South 6.9 mph - N/A   Scattered Clouds
5:35 PM 73.4 °F - 64.4 °F 73% 30.26 in 10.0 mi South 3.5 mph - N/A   Mostly Cloudy
5:55 PM 71.6 °F - 64.4 °F 78% 30.25 in 10.0 mi Calm Calm - N/A   Scattered Clouds
6:15 PM 71.6 °F - 66.2 °F 83% 30.25 in 10.0 mi Calm Calm - N/A   Clear
6:35 PM 68.0 °F - 62.6 °F 83% 30.25 in 10.0 mi East 5.8 mph - N/A   Scattered Clouds
7:15 PM 68.0 °F - 64.4 °F 88% 30.26 in 10.0 mi East 4.6 mph - N/A   Scattered Clouds
7:35 PM 64.4 °F - 62.6 °F 94% 30.26 in 10.0 mi East 5.8 mph - N/A   Scattered Clouds
7:55 PM 66.2 °F - 64.4 °F 94% 30.25 in 10.0 mi East 4.6 mph - N/A   Mostly Cloudy
8:15 PM 64.4 °F - 62.6 °F 94% 30.25 in 7.0 mi Calm Calm - N/A   Scattered Clouds
8:35 PM 64.4 °F - 64.4 °F 100% 30.26 in 7.0 mi ENE 5.8 mph - N/A   Clear
8:55 PM 64.4 °F - 64.4 °F 100% 30.27 in 7.0 mi ENE 4.6 mph - N/A   Clear
9:15 PM 64.4 °F - 64.4 °F 100% 30.27 in 5.0 mi East 4.6 mph - N/A   Clear
9:35 PM 64.4 °F - 62.6 °F 94% 30.27 in 5.0 mi East 4.6 mph - N/A   Clear
9:55 PM 64.4 °F - 64.4 °F 100% 30.25 in 5.0 mi East 6.9 mph - N/A   Clear
10:15 PM 64.4 °F - 64.4 °F 100% 30.24 in 5.0 mi East 6.9 mph - N/A   Clear
10:35 PM 64.4 °F - 64.4 °F 100% 30.25 in 7.0 mi ESE 5.8 mph - N/A   Clear
10:55 PM 64.4 °F - 64.4 °F 100% 30.25 in 7.0 mi ESE 3.5 mph - N/A   Clear
11:15 PM 64.4 °F - 64.4 °F 100% 30.25 in 5.0 mi ESE 4.6 mph - N/A   Scattered Clouds
11:35 PM 64.4 °F - 64.4 °F 100% 30.25 in 4.0 mi East 3.5 mph - N/A   Scattered Clouds
11:55 PM 64.4 °F - 62.6 °F 94% 30.25 in 2.5 mi Calm Calm - N/A   Mist